G6212 Weather Reports


time (UTC)temp
F
wind
direction
speed
knots
gust
knots
rain 1hr
in
rain 24hr
in
rain mn
in
humidity
%
barometer
mb
20260502152048 66 351 1.7 2.6 0.00 2.58 0.16 72
20260502151549 66 322 1.7 2.6 0.00 2.59 0.16 73
20260502151048 65 340 2.6 2.6 0.00 2.59 0.16 75
20260502150549 65 331 1.7 2.6 0.00 2.59 0.16 75
20260502130551 56 288 0.9 0.9 0.00 2.76 0.16 93
20260502123551 54 311 0.9 0.9 0.00 2.87 0.16 96
20260502123053 54 296 0.9 1.7 0.00 2.88 0.16 97
20260502122551 53 325 0.9 0.9 0.00 2.89 0.16 97
20260502122051 53 293 0.9 0.9 0.00 2.89 0.16 97
20260502121551 53 279 0.9 1.7 0.00 2.89 0.16 97
20260502121052 53 303 0.9 0.9 0.00 2.89 0.16 97
20260502120612 53 282 0.9 0.9 0.00 2.90 0.16 97
20260502115552 53 135 0.0 0.0 0.00 2.91 0.16 97
20260502115132 53 347 0.0 0.0 0.00 2.91 0.16 97
20260502114552 53 332 0.0 0.9 0.00 2.91 0.16 97
20260502114052 53 328 0.9 0.9 0.00 2.91 0.16 97
20260502113612 53 303 0.0 0.9 0.00 2.91 0.16 97
20260502113052 53 335 0.0 0.9 0.00 2.91 0.16 97
20260502112552 53 322 0.0 0.9 0.00 2.91 0.16 97
20260502112113 53 326 0.9 0.9 0.00 2.91 0.16 97
20260502111613 53 321 0.0 0.9 0.00 2.91 0.16 96
20260502111053 53 27 0.0 0.0 0.00 2.91 0.16 96
20260502110553 53 309 0.0 0.0 0.00 2.91 0.16 96
20260502110053 53 355 0.0 0.9 0.00 2.91 0.16 96
20260502105553 54 7 0.0 0.0 0.00 2.91 0.16 95
20260502105053 54 329 0.9 0.9 0.00 2.91 0.16 95
20260502104553 54 298 0.9 0.9 0.00 2.91 0.16 95
20260502104053 54 307 0.9 0.9 0.00 2.91 0.16 95
20260502103553 54 318 0.0 0.0 0.00 2.92 0.16 95
20260502103053 54 43 0.0 0.0 0.00 2.92 0.16 95
20260502102553 54 230 0.0 0.9 0.00 2.92 0.16 95
20260502102053 54 340 0.0 0.9 0.00 2.92 0.16 94
20260502101553 54 292 0.0 0.0 0.00 2.92 0.16 94
20260502101054 54 0.0 0.0 0.00 2.92 0.16 93
20260502100554 54 344 0.0 0.9 0.00 2.92 0.16 93
20260502091055 56 350 0.0 0.9 0.00 2.97 0.16 91
20260502090555 56 333 0.9 1.7 0.00 3.02 0.16 91
20260502071057 55 321 0.0 0.0 0.00 4.01 0.16 95
20260502070557 55 18 0.9 0.9 0.00 4.02 0.16 94
20260502070057 56 281 0.0 0.9 0.00 4.05 0.16 94
20260502065637 56 317 1.7 2.6 0.00 4.07 0.16 94
20260502065057 56 312 2.6 2.6 0.00 4.08 0.16 94
20260502064557 56 313 2.6 2.6 0.00 4.08 0.16 94
20260502064057 56 311 2.6 2.6 0.00 4.08 0.16 94
20260502063557 56 308 1.7 2.6 0.00 4.09 0.16 94
20260502063058 56 314 1.7 2.6 0.00 4.09 0.16 94
20260502062558 56 307 2.6 2.6 0.00 4.09 0.16 94
20260502062058 56 314 2.6 2.6 0.00 4.09 0.16 94
20260502061058 56 307 2.6 2.6 0.00 4.09 0.16 95
20260502060558 56 309 2.6 2.6 0.00 4.09 0.16 95
20260502060058 56 310 2.6 2.6 0.00 4.09 0.16 95
20260502055618 56 291 1.7 2.6 0.00 4.09 0.16 96
20260502055058 56 309 2.6 2.6 0.00 4.09 0.16 96
20260502054558 56 311 2.6 2.6 0.00 4.09 0.16 97
20260502054058 56 308 2.6 2.6 0.00 4.09 0.16 97
20260502053618 56 317 1.7 2.6 0.00 4.09 0.16 98
20260502053058 56 309 2.6 2.6 0.00 4.09 0.16 98
20260502052559 56 308 1.7 2.6 0.00 4.09 0.16 98
20260502052119 56 315 2.6 2.6 0.00 4.09 0.16 98
20260502051619 56 304 2.6 2.6 0.00 4.12 0.16 99
20260502051059 56 307 2.6 2.6 0.00 4.12 0.16 99
20260502050559 56 311 1.7 2.6 0.00 4.12 0.16 99
20260502050119 56 315 1.7 2.6 0.00 4.12 0.16 99
20260502045619 56 302 1.7 2.6 0.00 4.12 0.16 99
20260502045059 56 4 0.9 1.7 0.00 4.12 0.16 99
20260502044559 56 321 0.9 1.7 0.00 4.12 0.16 99
20260502044059 56 354 1.7 3.5 0.00 4.12 0.16 99
20260502043559 56 354 1.7 2.6 0.00 4.20 0.16 99
20260502043059 56 339 0.9 1.7 0.00 4.38 0.16 99
20260502042600 56 305 0.9 0.9 0.00 4.41 0.16 99
20260502042059 56 348 1.7 1.7 0.00 4.41 0.16 99
20260502041600 56 316 1.7 3.5 0.00 4.41 0.16 99
20260502041100 56 293 1.7 1.7 0.00 4.41 0.16 99
20260502040600 56 290 1.7 1.7 0.00 4.41 0.16 99
20260502040100 56 282 2.6 3.5 0.00 4.41 0.16 99
20260502035620 56 264 3.5 4.3 0.00 4.41 0.16 99
20260502035100 56 248 5.2 5.2 0.00 4.41 0.16 99
20260502034600 56 255 4.3 5.2 0.00 4.41 0.16 99
20260502034100 56 243 4.3 6.1 0.00 4.41 0.16 99
20260502033600 56 246 3.5 4.3 0.00 4.41 0.16 100
20260502033121 56 237 5.2 7.0 0.00 4.41 0.16 100
20260502032601 56 242 4.3 6.1 0.00 4.41 0.16 100
20260502032101 56 263 3.5 5.2 0.00 4.41 0.16 100
20260502031602 56 266 1.7 2.6 0.00 4.41 0.16 100
20260502031101 57 281 1.7 2.6 0.00 4.41 0.16 100
20260502030601 57 280 1.7 1.7 0.00 4.41 0.16 100
20260502030101 57 291 0.9 1.7 0.00 4.41 0.16 100
20260502025641 57 296 0.9 0.9 0.00 4.41 0.16 100
20260502025121 57 303 0.9 0.9 0.00 4.41 0.16 99
20260502024601 57 304 0.9 1.7 0.01 4.41 0.16 99
20260502024101 57 321 1.7 1.7 0.01 4.41 0.16 100
20260502023621 57 314 1.7 1.7 0.01 4.41 0.16 100
20260502023101 57 315 1.7 1.7 0.03 4.41 0.16 99
20260502022601 57 314 1.7 1.7 0.04 4.41 0.16 99
20260502022101 57 315 1.7 1.7 0.05 4.41 0.16 99
20260502021601 57 315 1.7 1.7 0.05 4.41 0.16 99
20260502021101 58 314 1.7 1.7 0.05 4.41 0.16 100
20260502020601 58 313 1.7 2.6 0.06 4.41 0.16 99
20260502015602 58 304 1.7 2.6 0.07 4.41 0.16 99
20260502015102 58 314 1.7 2.6 0.07 4.40 0.16 99
20260502014602 58 314 1.7 1.7 0.08 4.40 0.16 99
20260502014102 59 314 1.7 1.7 0.10 4.40 0.16 99
20260502013602 59 314 1.7 1.7 0.09 4.39 0.15 99
20260502013102 59 314 1.7 1.7 0.08 4.38 0.14 99
20260502012602 59 309 1.7 1.7 0.07 4.37 0.13 99
20260502012103 59 306 1.7 1.7 0.06 4.35 0.11 99
20260502011602 59 300 1.7 1.7 0.06 4.35 0.11 99
20260502011103 59 295 1.7 2.6 0.06 4.35 0.11 99
20260502010603 59 304 1.7 1.7 0.06 4.35 0.10 99
20260502005603 59 287 0.9 1.7 0.10 4.34 0.10 99
20260502005104 59 335 1.7 2.6 0.10 4.33 0.09 99
20260502004603 59 311 1.7 2.6 0.08 4.32 0.07 99
20260502004104 59 310 1.7 1.7 0.08 4.30 0.06 99
20260502003603 59 322 1.7 1.7 0.10 4.30 0.06 99
20260502003103 59 127 0.9 1.7 0.11 4.30 0.06 99
20260502002603 59 137 0.9 0.9 0.14 4.30 0.06 99
20260502002123 60 137 1.7 1.7 0.14 4.30 0.05 100
20260502001603 60 137 0.9 1.7 0.14 4.29 0.05 100
20260502001103 60 136 1.7 1.7 0.13 4.29 0.04 100
20260502000604 60 142 1.7 1.7 0.13 4.28 0.04 100
20260502000104 60 271 2.6 4.3 0.12 4.27 0.03 100
20260501235624 60 326 4.3 7.8 0.10 4.24 4.24 100
20260501235124 60 331 2.6 2.6 0.12 4.24 4.24 100
20260501234625 60 316 1.7 2.6 0.18 4.23 4.23 100
20260501234104 60 332 3.5 5.2 0.22 4.22 4.22 100
20260501233604 60 327 1.7 2.6 0.20 4.20 4.20 100
20260501233104 60 355 1.7 2.6 0.19 4.19 4.19 100
20260501232604 60 302 1.7 1.7 0.16 4.16 4.16 100
20260501232104 60 292 1.7 1.7 0.15 4.15 4.15 100
20260501231604 60 334 1.7 2.6 0.15 4.15 4.15 100
20260501231104 60 33 4.3 4.3 0.15 4.15 4.15 100
20260501230604 61 22 4.3 5.2 0.15 4.15 4.15 100
20260501230104 61 14 5.2 6.1 0.15 4.15 4.15 100
20260501225604 61 9 2.6 3.5 0.14 4.14 4.14 100
20260501225104 61 334 3.5 4.3 0.12 4.12 4.12 100
20260501224605 61 344 1.7 2.6 0.06 4.05 4.05 100
20260501224105 61 316 1.7 2.6 0.01 4.01 4.01 100
20260501223605 61 344 1.7 1.7 0.00 4.00 4.00 100
20260501223105 61 327 2.6 3.5 0.00 4.00 4.00 100
20260501222605 61 315 2.6 2.6 0.00 4.00 4.00 99
20260501222125 61 314 2.6 2.6 0.00 4.00 4.00 99
20260501221625 61 315 2.6 2.6 0.00 4.00 4.00 99
20260501221105 61 315 1.7 2.6 0.00 4.00 4.00 99
20260501220626 61 315 1.7 1.7 0.01 4.00 4.00 99
20260501220106 62 314 1.7 2.6 0.01 4.00 4.00 99
20260501215605 62 314 1.7 2.6 0.01 4.00 4.00 99
20260501215106 62 315 1.7 1.7 0.03 4.00 4.00 99
20260501214605 62 314 1.7 2.6 0.03 4.00 4.00 99
20260501214106 62 315 1.7 2.6 0.04 4.00 4.00 100
20260501213626 62 313 1.7 2.6 0.04 4.00 4.00 100
20260501213106 62 314 1.7 2.6 0.04 4.00 4.00 100
20260501212606 62 314 1.7 2.6 0.05 4.00 4.00 100
20260501212106 62 313 1.7 2.6 0.07 4.00 4.00 99
20260501211606 62 314 1.7 1.7 0.09 4.00 4.00 99
20260501211106 62 314 1.7 1.7 0.17 4.00 4.00 99
20260501210606 62 312 1.7 1.7 0.20 3.99 3.99 99
20260501210107 62 313 1.7 1.7 0.22 3.99 3.99 99
20260501205606 62 314 1.7 1.7 0.22 3.98 3.98 99
20260501205107 62 312 1.7 1.7 0.23 3.97 3.97 99
20260501204607 63 321 1.7 1.7 0.24 3.97 3.97 99
20260501204107 63 316 1.7 1.7 0.23 3.96 3.96 99
20260501203607 63 316 1.7 3.5 0.24 3.96 3.96 99
20260501203107 63 318 2.6 3.5 0.25 3.96 3.96 99
20260501202627 63 313 1.7 1.7 0.26 3.95 3.95 99
20260501202107 63 316 1.7 1.7 0.25 3.93 3.93 99
20260501201607 63 313 1.7 1.7 0.25 3.91 3.91 99
20260501201127 63 314 1.7 1.7 0.20 3.83 3.83 99
20260501200607 63 307 1.7 1.7 0.20 3.79 3.79 99
20260501200107 63 306 1.7 1.7 0.18 3.77 3.77 99
20260501195627 63 300 1.7 2.6 0.17 3.76 3.76 99
20260501195108 63 337 1.7 2.6 0.18 3.75 3.75 99
20260501194608 63 39 3.5 4.3 0.39 3.73 3.73 99
20260501194128 63 49 4.3 4.3 0.42 3.73 3.73 99
20260501193608 63 50 3.5 4.3 0.43 3.73 3.73 99
20260501193108 63 51 3.5 4.3 0.44 3.71 3.71 99
20260501192608 63 53 4.3 4.3 0.42 3.69 3.69 99
20260501192128 63 55 4.3 4.3 0.41 3.68 3.68 99
20260501191648 63 55 3.5 4.3 0.40 3.66 3.66 99
20260501191108 63 57 3.5 4.3 0.38 3.62 3.62 99
20260501190608 63 52 4.3 5.2 0.49 3.59 3.59 99
20260501190108 63 51 4.3 4.3 0.72 3.59 3.59 99
20260501185609 63 40 3.5 4.3 0.80 3.59 3.59 99
20260501185129 63 37 3.5 4.3 0.81 3.57 3.57 99
20260501184608 63 60 2.6 3.5 0.63 3.34 3.34 99
20260501184109 63 31 1.7 2.6 0.61 3.31 3.31 99
20260501183609 63 40 2.6 3.5 0.60 3.29 3.29 99
20260501183149 63 20 0.9 1.7 0.79 3.27 3.27 99
20260501182610 63 39 2.6 3.5 1.04 3.27 3.27 99
20260501182109 63 36 4.3 7.0 1.10 3.27 3.27 99
20260501181609 63 41 5.2 5.2 1.10 3.26 3.26 99
20260501181109 63 2 3.5 5.2 1.10 3.25 3.25 99
20260501180609 63 343 2.6 3.5 0.96 3.11 3.11 99
20260501180109 63 336 2.6 2.6 0.73 2.87 2.87 99
20260501175609 63 336 2.6 2.6 0.66 2.79 2.79 99
20260501175109 63 355 1.7 2.6 0.62 2.76 2.76 99
20260501174610 63 21 2.6 2.6 0.57 2.71 2.71 99
20260501174110 63 358 3.5 3.5 0.57 2.70 2.70 99
20260501173630 63 328 3.5 5.2 0.56 2.69 2.69 100
20260501173150 63 349 2.6 4.3 0.34 2.47 2.47 100
20260501172610 63 320 1.7 2.6 0.09 2.22 2.22 100
20260501172110 63 320 1.7 2.6 0.04 2.17 2.17 100
20260501171610 63 327 2.6 2.6 0.04 2.16 2.16 100
20260501171130 63 338 1.7 2.6 0.03 2.15 2.15 100
20260501170610 62 323 1.7 1.7 0.05 2.14 2.14 100
20260501170110 62 328 1.7 2.6 0.05 2.14 2.14 100
20260501165610 63 336 1.7 2.6 0.09 2.14 2.14 100
20260501165131 63 59 1.7 1.7 0.14 2.14 2.14 100
20260501164610 63 138 1.7 1.7 0.24 2.14 2.14 100
20260501164110 63 131 0.9 1.7 0.28 2.13 2.13 100
20260501163610 63 115 2.6 2.6 0.29 2.13 2.13 100
20260501163111 63 34 1.7 2.6 0.30 2.13 2.13 100
20260501162112 63 311 1.7 2.6 0.30 2.13 2.13 100
20260501161611 63 333 2.6 3.5 0.30 2.12 2.12 100
20260501161111 63 321 1.7 2.6 0.30 2.11 2.11 100
20260501160611 63 334 1.7 1.7 0.28 2.10 2.10 100
20260501160111 63 309 1.7 1.7 0.27 2.09 2.09 100
20260501155611 63 328 1.7 1.7 0.23 2.05 2.05 100
20260501155111 63 311 0.9 1.7 0.17 1.99 1.99 100
20260501154631 63 356 0.9 2.6 0.08 1.90 1.90 100